TimeEDT,TemperatureF,Dew PointF,Humidity,Sea Level PressureIn,VisibilityMPH,Wind Direction,Wind SpeedMPH,Gust SpeedMPH,PrecipitationIn,Events,Conditions,WindDirDegrees,DateUTC
12:05 AM,51.8,-9999,N/A,30.28,0.2,ESE,9.2,-,N/A,Fog,Fog,120,2013-10-15 04:05:00
12:25 AM,51.8,-9999,N/A,30.27,0.2,SE,5.8,-,N/A,Fog,Fog,130,2013-10-15 04:25:00
12:45 AM,51.8,-9999,N/A,30.27,0.2,SE,5.8,-,N/A,Fog,Fog,130,2013-10-15 04:45:00
1:05 AM,51.8,-9999,N/A,30.27,0.2,SE,5.8,-,N/A,Fog,Fog,130,2013-10-15 05:05:00
1:25 AM,51.8,-9999,N/A,30.26,0.2,SE,8.1,-,N/A,Fog,Fog,140,2013-10-15 05:25:00
1:45 AM,51.8,-9999,N/A,30.26,0.2,SE,8.1,-,N/A,Fog,Fog,140,2013-10-15 05:45:00
2:05 AM,51.8,-9999,N/A,30.25,0.2,SE,8.1,-,N/A,Fog,Fog,140,2013-10-15 06:05:00
2:25 AM,51.8,-9999,N/A,30.25,0.2,SE,9.2,-,N/A,Fog,Fog,130,2013-10-15 06:25:00
2:45 AM,51.8,-9999,N/A,30.24,0.2,SE,8.1,-,N/A,Fog,Fog,140,2013-10-15 06:45:00
3:05 AM,51.8,-9999,N/A,30.24,0.2,SE,9.2,-,N/A,Fog,Fog,130,2013-10-15 07:05:00
3:25 AM,50.0,-9999,N/A,30.23,0.2,SE,10.4,-,N/A,Fog,Fog,130,2013-10-15 07:25:00
3:45 AM,51.8,-9999,N/A,30.23,0.2,SE,10.4,-,N/A,Fog,Fog,130,2013-10-15 07:45:00
4:05 AM,50.0,-9999,N/A,30.22,0.2,SE,10.4,-,N/A,Fog,Fog,130,2013-10-15 08:05:00
4:25 AM,50.0,-9999,N/A,30.22,0.2,SE,12.7,-,N/A,Fog,Fog,130,2013-10-15 08:25:00
4:45 AM,50.0,-9999,N/A,30.22,0.2,SE,11.5,-,N/A,Fog,Fog,140,2013-10-15 08:45:00
5:05 AM,50.0,-9999,N/A,30.22,0.2,SE,12.7,-,N/A,Fog,Fog,140,2013-10-15 09:05:00
5:25 AM,50.0,-9999,N/A,30.22,0.2,SE,11.5,16.1,N/A,Fog,Fog,130,2013-10-15 09:25:00
5:45 AM,50.0,-9999,N/A,30.22,0.2,SE,12.7,-,N/A,Fog,Fog,140,2013-10-15 09:45:00
6:05 AM,50.0,-9999,N/A,30.22,0.2,SE,11.5,-,N/A,Fog,Fog,140,2013-10-15 10:05:00
6:25 AM,50.0,-9999,N/A,30.22,0.2,SE,10.4,-,N/A,Fog,Fog,140,2013-10-15 10:25:00
6:45 AM,50.0,-9999,N/A,30.22,0.2,SE,9.2,-,N/A,Fog,Fog,140,2013-10-15 10:45:00
7:05 AM,50.0,-9999,N/A,30.22,0.2,SE,10.4,-,N/A,Fog,Fog,130,2013-10-15 11:05:00
7:25 AM,50.0,-9999,N/A,30.22,0.2,SE,8.1,-,N/A,Fog,Fog,140,2013-10-15 11:25:00
7:45 AM,50.0,-9999,N/A,30.23,0.2,SE,10.4,-,N/A,Fog,Fog,140,2013-10-15 11:45:00
8:05 AM,50.0,-9999,N/A,30.23,0.2,SE,11.5,-,N/A,Fog,Fog,140,2013-10-15 12:05:00
8:25 AM,50.0,-9999,N/A,30.23,3.0,SE,10.4,-,N/A,,Overcast,140,2013-10-15 12:25:00
8:45 AM,50.0,-9999,N/A,30.23,0.8,SSE,10.4,-,N/A,,Overcast,150,2013-10-15 12:45:00
9:05 AM,50.0,-9999,N/A,30.23,0.5,SSE,9.2,-,N/A,Fog,Fog,150,2013-10-15 13:05:00
9:25 AM,50.0,-9999,N/A,30.23,1.0,SE,10.4,-,N/A,,Overcast,140,2013-10-15 13:25:00
9:45 AM,51.8,-9999,N/A,30.23,4.0,SE,11.5,-,N/A,,Haze,140,2013-10-15 13:45:00
10:00 AM,51.8,-9999,N/A,30.23,10.0,SE,10.4,-,N/A,,Mostly Cloudy,130,2013-10-15 14:00:00
10:25 AM,53.6,-9999,N/A,30.23,10.0,SE,9.2,-,N/A,,Clear,140,2013-10-15 14:25:00
10:45 AM,55.4,-9999,N/A,30.22,10.0,ESE,10.4,-,N/A,,Clear,120,2013-10-15 14:45:00
11:05 AM,57.2,55.4,94,30.22,10.0,SE,10.4,-,N/A,,Clear,130,2013-10-15 15:05:00
11:25 AM,59.0,55.4,88,30.22,10.0,ESE,10.4,16.1,N/A,,Clear,120,2013-10-15 15:25:00
11:45 AM,59.0,53.6,82,30.21,10.0,SE,9.2,-,N/A,,Clear,140,2013-10-15 15:45:00
12:05 PM,60.8,55.4,82,30.21,10.0,SE,11.5,-,N/A,,Clear,130,2013-10-15 16:05:00
12:25 PM,60.8,55.4,82,30.20,10.0,ESE,12.7,-,N/A,,Clear,120,2013-10-15 16:25:00
12:45 PM,60.8,55.4,82,30.20,10.0,SE,6.9,-,N/A,,Clear,140,2013-10-15 16:45:00
1:05 PM,,,,,,Calm,Calm,,,,,,2013-10-15 17:05:00
1:25 PM,,,,,,Calm,Calm,,,,,,2013-10-15 17:25:00
1:45 PM,,,,,,Calm,Calm,,,,,,2013-10-15 17:45:00
1:55 PM,60.8,51.8,72,30.18,-9999.0,SE,10.4,-,N/A,,Unknown,140,2013-10-15 17:55:00
2:25 PM,60.8,51.8,72,30.16,10.0,SE,9.2,-,N/A,,Clear,130,2013-10-15 18:25:00
2:45 PM,60.8,50.0,68,30.15,10.0,SSE,10.4,17.3,N/A,,Clear,150,2013-10-15 18:45:00
3:05 PM,62.6,51.8,68,30.14,10.0,SE,9.2,-,N/A,,Clear,130,2013-10-15 19:05:00
3:25 PM,60.8,50.0,68,30.14,10.0,ESE,12.7,17.3,N/A,,Clear,120,2013-10-15 19:25:00
3:45 PM,60.8,50.0,68,30.14,10.0,SE,15.0,-,N/A,,Clear,140,2013-10-15 19:45:00
4:05 PM,60.8,50.0,68,30.13,10.0,SE,10.4,-,N/A,,Clear,140,2013-10-15 20:05:00
4:25 PM,59.0,50.0,72,30.13,10.0,SE,10.4,-,N/A,,Clear,140,2013-10-15 20:25:00
4:45 PM,59.0,50.0,72,30.13,10.0,SE,10.4,-,N/A,,Clear,130,2013-10-15 20:45:00
5:05 PM,59.0,50.0,72,30.13,10.0,SE,11.5,-,N/A,,Clear,140,2013-10-15 21:05:00
5:25 PM,59.0,50.0,72,30.13,10.0,SE,9.2,-,N/A,,Clear,140,2013-10-15 21:25:00
5:45 PM,57.2,50.0,77,30.13,10.0,SE,11.5,-,N/A,,Clear,130,2013-10-15 21:45:00
6:05 PM,55.4,50.0,82,30.12,10.0,SE,9.2,-,N/A,,Clear,140,2013-10-15 22:05:00
6:25 PM,55.4,50.0,82,30.12,10.0,SE,10.4,-,N/A,,Clear,140,2013-10-15 22:25:00
6:45 PM,55.4,50.0,82,30.12,10.0,SE,11.5,-,N/A,,Clear,140,2013-10-15 22:45:00
7:05 PM,55.4,50.0,82,30.12,10.0,SE,11.5,-,N/A,,Clear,130,2013-10-15 23:05:00
7:25 PM,53.6,50.0,88,30.12,10.0,SE,9.2,-,N/A,,Clear,130,2013-10-15 23:25:00
7:45 PM,53.6,51.8,94,30.12,10.0,SE,10.4,-,N/A,,Clear,130,2013-10-15 23:45:00
8:05 PM,53.6,51.8,94,30.12,10.0,SE,10.4,-,N/A,,Clear,130,2013-10-16 00:05:00
8:25 PM,53.6,50.0,88,30.12,10.0,SE,10.4,-,N/A,,Clear,130,2013-10-16 00:25:00
8:45 PM,53.6,50.0,88,30.11,10.0,SE,10.4,-,N/A,,Clear,130,2013-10-16 00:45:00
9:05 PM,53.6,48.2,82,30.11,10.0,SE,11.5,-,N/A,,Clear,130,2013-10-16 01:05:00
9:25 PM,53.6,48.2,82,30.10,10.0,SE,11.5,-,N/A,,Clear,130,2013-10-16 01:25:00
10:05 PM,51.8,46.4,82,30.10,10.0,SE,11.5,-,N/A,,Clear,130,2013-10-16 02:05:00
10:25 PM,51.8,46.4,82,30.10,10.0,SE,11.5,17.3,N/A,,Clear,130,2013-10-16 02:25:00
10:45 PM,51.8,48.2,88,30.10,10.0,SE,12.7,-,N/A,,Clear,140,2013-10-16 02:45:00
11:05 PM,51.8,46.4,82,30.10,10.0,SE,12.7,-,N/A,,Clear,140,2013-10-16 03:05:00
11:25 PM,51.8,46.4,82,30.09,10.0,SE,10.4,-,N/A,,Clear,140,2013-10-16 03:25:00
11:45 PM,51.8,48.2,88,30.08,10.0,SE,10.4,-,N/A,,Clear,140,2013-10-16 03:45:00